Wind_Speed
9 9 12 15 13 9 5 4 6 4 7 7 8 10 14 17 21 21 23 26 29 33 37 38 33 32 31 31 30 29 33 35 35 38 41 38 34 32 33 35 36 35 30
11 9 7 6 6 7 6 7 5 8 4 6 9 10 20 24 25 27 27 30 30 30 37 37 38 34 33 32 28 27 31 35 36 35 35 36 36 34 32 30 27 27 31
13 10 5 5 5 6 7 8 9 7 8 8 9 15 19 25 31 32 35 39 38 35 34 34 37 37 37 31 28 27 30 33 34 30 29 33 37 39 40 38 38 38 40
16 13 8 7 7 7 8 10 9 9 10 10 13 16 21 26 32 37 40 40 41 37 38 35 36 36 33 31 25 29 34 34 34 34 31 34 36 38 39 44 43 43 45
21 15 11 14 12 10 9 13 11 8 11 12 15 18 23 27 33 38 41 41 43 40 34 40 40 34 29 29 32 35 36 40 35 32 33 37 39 40 44 48 46 51 50
25 19 16 17 17 13 14 15 13 13 13 13 17 20 25 30 36 39 43 42 44 39 36 39 37 34 30 32 33 34 39 37 34 34 37 41 45 46 43 48 52 52 53
28 24 22 17 19 19 17 17 12 14 15 16 19 24 29 31 36 40 44 43 44 41 37 36 35 31 35 33 34 35 37 37 38 42 45 48 47 47 49 50 51 51 53
31 29 28 22 18 19 19 19 17 16 17 20 23 28 30 31 35 41 45 46 46 43 43 38 32 31 37 37 37 36 37 40 45 47 46 47 49 51 52 52 50 51 53
32 33 31 25 20 21 20 22 24 23 23 27 29 32 29 30 39 43 46 48 48 48 42 35 31 33 36 37 38 41 43 47 51 52 51 51 55 53 47 49 52 54 55
35 34 35 31 27 22 23 26 23 24 26 32 37 38 30 38 43 44 44 48 49 47 42 40 37 36 38 41 44 45 48 51 53 53 54 52 59 58 48 54 52 47 47
40 39 40 37 33 27 27 27 25 28 31 38 43 41 34 38 42 44 44 46 48 47 47 46 46 44 43 44 46 48 51 53 54 58 50 53 59 58 49 45 45 42 41
44 43 43 43 39 32 31 29 31 30 38 44 47 32 34 38 41 46 48 49 48 43 45 45 45 46 44 44 45 50 52 53 52 55 51 51 50 50 49 45 40 38 36
45 44 43 45 42 34 33 36 32 34 44 47 51 39 38 44 45 50 51 51 47 48 47 46 45 45 48 47 48 48 49 52 53 52 49 49 50 48 42 39 38 39 39
47 47 46 45 40 36 40 36 36 41 46 46 49 40 41 49 51 54 53 49 48 46 45 48 48 48 48 44 46 48 49 49 47 47 47 42 39 37 38 39 39 37 35
45 47 47 44 41 42 39 42 41 46 49 42 38 45 45 50 53 51 47 47 44 46 47 49 47 42 42 42 43 42 42 42 40 38 37 39 38 37 37 36 36 35 33
50 47 46 50 45 42 41 46 46 52 50 48 47 49 46 54 48 49 49 47 46 47 48 46 44 41 36 36 35 35 34 32 35 36 37 36 33 31 30 30 30 29 28
51 48 47 46 48 39 42 46 53 48 52 55 58 40 45 51 53 50 49 47 46 48 46 45 40 37 34 30 31 30 34 32 31 33 34 33 32 30 30 30 30 29 28
52 57 54 55 43 49 50 52 51 55 54 57 47 52 54 54 51 48 48 46 46 44 42 39 37 33 31 27 29 29 27 29 30 31 32 32 30 29 29 30 29 29 29
54 50 39 43 51 56 55 52 56 43 47 53 42 51 53 49 47 46 45 44 42 39 35 31 30 27 25 26 24 24 25 26 28 30 31 31 31 32 32 32 31 31 31
49 52 55 52 54 51 47 48 47 47 47 51 44 46 44 43 43 41 40 38 35 28 28 29 29 27 24 22 22 22 23 25 27 28 31 30 30 30 31 32 31 30 31
50 52 52 47 45 55 55 49 45 34 36 42 41 39 40 40 38 36 33 32 28 31 31 29 28 22 21 22 21 23 23 24 25 26 28 30 29 29 30 30 29 29 30
44 48 46 49 49 49 50 55 47 34 37 41 39 37 36 35 33 32 31 30 31 32 29 26 22 19 19 19 19 21 23 24 25 26 28 29 30 30 28 29 29 28 27
43 42 44 50 42 40 27 25 28 30 34 35 30 33 32 30 30 30 29 30 31 29 24 21 20 18 18 18 19 22 22 22 23 25 27 28 29 30 27 26 25 24 24
36 26 28 30 20 24 30 32 30 28 28 29 31 33 32 31 32 33 34 34 32 30 24 20 18 17 18 18 20 22 22 23 23 23 25 26 28 29 26 24 23 24 23
18 22 24 26 26 25 23 29 34 34 33 32 32 32 32 34 36 37 34 31 30 27 23 21 18 18 19 21 21 23 23 23 24 24 24 26 26 28 26 23 22 22 22
24 24 25 28 28 28 29 29 31 32 32 32 32 32 34 37 36 33 29 28 27 26 23 21 19 21 22 24 23 23 24 23 23 24 24 24 25 25 26 23 21 20 21
Wind_Direction
279 281 267 256 242 238 200 208 200 262 314 319 318 314 344 351 348 341 334 331 326 328 332 330 329 328 320 302 291 286 279 286 289 295 297 295 290 287 278 272 275 275 273
275 290 285 269 225 206 204 240 249 301 292 307 317 346 359 5 353 346 336 330 326 327 328 326 325 321 321 312 305 291 288 288 296 295 293 294 296 300 300 296 287 273 273
271 271 272 227 175 191 235 253 276 282 305 322 353 354 357 358 355 348 349 349 341 332 329 324 323 320 319 317 302 308 303 303 301 303 296 301 301 298 302 303 299 295 297
275 272 238 237 219 226 242 249 262 278 302 330 346 350 347 345 349 345 343 341 343 331 331 327 318 314 316 317 308 297 300 301 298 294 294 295 298 299 296 294 290 294 293
273 277 238 252 237 238 257 257 250 255 292 317 331 340 340 340 339 334 333 334 332 332 322 324 320 315 311 311 307 301 301 300 297 294 294 297 298 302 299 296 288 290 290
258 271 253 246 255 250 255 252 268 275 284 310 323 330 333 334 330 326 327 326 327 327 327 321 314 310 307 307 303 299 298 302 296 296 291 291 293 298 292 287 287 290 293
247 256 263 263 252 257 248 249 256 262 284 304 314 322 326 326 323 320 320 324 325 326 323 318 310 303 307 303 297 299 293 293 294 295 293 292 291 293 294 292 290 290 290
245 252 259 261 252 249 247 251 254 269 293 300 310 315 313 315 314 314 315 320 322 323 321 316 311 303 304 299 298 297 294 293 292 292 292 291 289 290 291 290 292 293 296
246 248 255 262 260 256 253 254 263 277 289 295 298 293 294 304 310 311 312 315 318 320 319 313 306 305 305 301 298 295 292 290 291 291 291 288 294 286 291 294 296 295 296
242 247 255 258 257 256 256 257 267 277 286 288 283 285 291 302 301 306 309 311 313 317 318 313 312 309 304 299 295 294 293 290 291 289 289 297 290 282 291 300 299 299 296
245 244 250 254 258 259 254 261 269 281 281 284 291 293 300 295 303 306 311 314 312 311 311 312 312 309 305 299 293 294 293 294 294 295 289 286 293 303 307 300 300 298 294
243 241 245 250 254 261 259 265 265 278 278 284 286 315 303 299 302 308 309 312 312 312 309 312 310 308 303 297 293 295 294 294 294 293 294 302 305 305 304 300 299 297 297
233 240 244 246 249 253 258 258 271 276 279 281 289 296 300 302 302 304 306 310 309 311 312 311 309 303 300 294 294 295 295 293 295 301 305 305 304 300 298 296 299 300 300
236 239 244 240 245 250 252 261 267 269 279 277 280 285 294 297 299 304 310 310 311 311 310 308 305 303 301 300 299 297 298 299 301 302 301 302 301 298 299 299 299 297 298
234 236 239 240 240 246 253 256 256 262 262 274 280 287 294 295 302 311 308 307 306 309 307 304 303 301 303 302 301 302 304 305 302 300 301 302 302 299 297 297 298 299 299
232 237 235 235 238 244 248 262 264 259 267 272 277 280 284 293 306 307 304 304 306 306 305 306 306 305 306 306 308 307 305 304 306 309 308 306 304 304 305 307 308 306 304
236 237 235 239 238 240 241 255 263 256 261 268 275 284 293 297 305 305 300 302 305 306 308 308 308 308 306 303 303 303 308 311 316 316 316 316 317 317 315 312 308 306 305
236 235 227 233 238 247 253 254 254 259 268 275 283 286 280 297 300 298 298 304 305 307 309 310 308 304 301 302 304 307 313 319 322 323 322 322 318 316 314 312 311 308 305
241 242 238 239 246 252 252 253 262 275 289 282 288 291 295 295 294 296 300 302 303 307 310 308 303 302 302 303 305 314 321 324 324 326 326 323 319 317 314 309 309 308 306
242 248 249 250 254 256 268 263 278 282 283 278 286 290 289 291 292 296 301 300 302 306 305 301 299 299 299 304 311 316 320 323 323 324 325 325 323 319 319 318 313 310 309
241 246 245 251 260 261 273 277 274 271 275 281 286 284 286 289 293 297 297 294 295 303 302 301 301 299 303 308 313 312 316 321 322 325 329 327 326 321 319 320 319 317 315
255 258 256 269 267 270 269 270 257 267 273 278 278 285 287 288 292 294 291 290 295 300 300 301 296 300 302 308 316 319 322 319 320 324 329 332 330 326 321 320 321 321 321
256 258 273 273 255 261 262 260 272 270 270 274 279 280 280 282 285 284 285 290 290 294 292 286 286 294 301 311 316 320 324 323 325 328 332 333 335 333 331 328 329 328 331
242 263 271 255 254 245 260 270 271 272 274 278 281 279 281 282 283 286 290 288 290 292 289 273 276 287 299 307 313 320 322 325 328 331 334 336 338 341 338 334 334 334 335
261 250 262 264 262 262 262 244 267 279 279 279 278 281 284 285 287 288 288 290 291 291 281 266 271 280 291 297 304 308 314 318 322 326 331 335 336 341 342 338 338 340 342
257 257 254 259 265 266 268 269 266 275 276 278 278 280 282 283 282 284 286 287 286 284 272 263 271 274 281 289 300 302 306 312 316 319 322 327 333 337 342 339 337 340 345
Height
5895 5896 5896 5896 5899 5903 5905 5906 5908 5911 5909 5908 5908 5907 5906 5904 5901 5899 5897 5894 5889 5885 5880 5877 5874 5869 5866 5861 5859 5858 5858 5859 5860 5856 5852 5849 5850 5849 5848 5848 5848 5848 5846
5893 5893 5893 5893 5896 5898 5901 5903 5905 5905 5907 5905 5904 5903 5901 5899 5897 5895 5892 5889 5885 5881 5876 5872 5868 5865 5861 5857 5852 5850 5850 5848 5848 5847 5841 5839 5837 5834 5834 5835 5836 5838 5838
5889 5890 5890 5891 5893 5895 5897 5899 5899 5900 5901 5901 5900 5899 5897 5895 5892 5889 5886 5883 5879 5875 5870 5866 5861 5858 5854 5850 5848 5846 5844 5841 5839 5837 5835 5834 5832 5829 5828 5827 5826 5824 5823
5886 5887 5888 5889 5890 5891 5893 5895 5895 5896 5895 5895 5894 5893 5892 5889 5886 5883 5880 5878 5874 5870 5866 5861 5856 5852 5849 5845 5844 5841 5839 5837 5834 5832 5830 5829 5827 5824 5822 5820 5818 5814 5812
5882 5884 5884 5885 5886 5887 5888 5888 5890 5892 5891 5890 5888 5887 5886 5884 5882 5879 5876 5873 5868 5863 5859 5855 5851 5847 5843 5841 5838 5834 5832 5829 5826 5824 5822 5820 5817 5815 5813 5811 5808 5805 5800
5876 5880 5879 5879 5881 5882 5882 5883 5884 5884 5885 5884 5882 5881 5880 5878 5875 5873 5870 5867 5862 5857 5852 5848 5843 5840 5838 5835 5831 5827 5824 5822 5819 5817 5815 5811 5808 5805 5802 5798 5794 5791 5789
5869 5872 5873 5874 5875 5876 5876 5876 5878 5878 5878 5877 5876 5875 5874 5872 5869 5865 5862 5859 5854 5849 5845 5839 5835 5831 5829 5826 5822 5819 5816 5813 5811 5807 5804 5798 5795 5790 5787 5783 5779 5776 5773
5862 5865 5866 5868 5869 5870 5869 5870 5871 5871 5871 5870 5870 5868 5866 5864 5860 5857 5854 5850 5844 5840 5836 5832 5826 5822 5819 5816 5812 5809 5805 5803 5799 5794 5790 5785 5780 5777 5773 5769 5766 5762 5758
5854 5858 5860 5861 5862 5862 5863 5863 5862 5863 5863 5862 5861 5859 5857 5855 5851 5849 5845 5840 5835 5830 5827 5823 5819 5815 5809 5806 5802 5798 5795 5791 5786 5782 5777 5773 5768 5762 5758 5755 5751 5747 5744
5844 5849 5852 5854 5855 5855 5856 5855 5855 5855 5854 5853 5850 5849 5847 5846 5843 5839 5835 5832 5827 5823 5820 5816 5810 5805 5800 5795 5790 5786 5782 5777 5773 5768 5763 5758 5752 5747 5743 5740 5736 5730 5727
5835 5838 5841 5844 5846 5847 5847 5847 5846 5845 5844 5842 5841 5840 5839 5837 5835 5831 5826 5822 5817 5813 5809 5806 5800 5795 5790 5785 5779 5774 5770 5765 5760 5755 5749 5744 5737 5732 5728 5723 5718 5714 5711
5824 5826 5829 5833 5835 5838 5838 5836 5835 5835 5832 5831 5832 5829 5829 5826 5825 5820 5815 5811 5806 5801 5798 5792 5787 5784 5779 5774 5769 5764 5758 5753 5748 5741 5734 5729 5723 5719 5714 5710 5706 5702 5699
5811 5814 5817 5820 5823 5826 5827 5825 5827 5825 5822 5822 5821 5820 5818 5816 5812 5807 5803 5799 5795 5789 5784 5780 5775 5771 5766 5761 5757 5751 5745 5740 5735 5728 5723 5717 5711 5707 5702 5698 5694 5690 5687
5799 5803 5806 5807 5812 5815 5814 5816 5815 5814 5814 5812 5810 5808 5806 5805 5801 5795 5791 5787 5782 5777 5772 5768 5763 5758 5754 5749 5744 5738 5733 5729 5724 5717 5711 5705 5701 5696 5691 5687 5684 5679 5676
5790 5792 5793 5795 5800 5801 5804 5804 5803 5804 5801 5799 5798 5797 5796 5793 5788 5783 5779 5775 5770 5766 5761 5755 5750 5746 5741 5737 5732 5727 5722 5717 5713 5707 5702 5696 5691 5687 5682 5677 5673 5669 5665
5774 5777 5779 5784 5786 5788 5790 5792 5792 5791 5790 5788 5787 5785 5783 5781 5776 5771 5768 5763 5759 5754 5748 5744 5740 5736 5731 5726 5721 5718 5714 5710 5705 5698 5692 5687 5682 5677 5673 5668 5664 5660 5656
5762 5765 5766 5768 5770 5773 5778 5780 5781 5780 5776 5776 5775 5769 5770 5768 5764 5760 5757 5752 5748 5743 5738 5734 5730 5726 5722 5718 5714 5710 5707 5701 5696 5690 5684 5679 5673 5668 5664 5660 5656 5652 5648
5750 5751 5752 5757 5759 5766 5765 5765 5768 5767 5767 5764 5761 5760 5757 5755 5753 5748 5745 5741 5736 5732 5727 5724 5719 5716 5713 5710 5707 5702 5698 5694 5688 5683 5677 5672 5667 5663 5658 5653 5649 5645 5641
5736 5740 5742 5747 5750 5752 5754 5756 5759 5754 5754 5753 5750 5750 5748 5745 5740 5737 5735 5730 5726 5722 5718 5716 5711 5708 5705 5703 5699 5695 5690 5686 5681 5676 5671 5666 5661 5656 5651 5646 5642 5638 5634
5730 5733 5736 5738 5741 5742 5737 5741 5743 5741 5740 5739 5737 5739 5736 5732 5729 5726 5724 5721 5717 5715 5711 5709 5705 5702 5698 5695 5692 5689 5685 5681 5677 5671 5667 5661 5655 5650 5645 5640 5635 5631 5626
5721 5724 5724 5725 5725 5731 5728 5731 5729 5729 5731 5729 5727 5725 5723 5721 5718 5716 5714 5711 5709 5706 5702 5700 5698 5695 5692 5689 5686 5683 5680 5676 5672 5667 5662 5656 5650 5645 5640 5635 5630 5625 5621
5712 5709 5713 5715 5714 5714 5713 5714 5715 5716 5719 5719 5715 5713 5710 5709 5708 5705 5704 5702 5700 5698 5695 5692 5691 5689 5686 5684 5681 5678 5675 5672 5667 5662 5657 5652 5646 5640 5635 5630 5625 5621 5616
5700 5699 5701 5701 5701 5699 5699 5699 5703 5703 5706 5705 5703 5701 5701 5700 5699 5699 5696 5694 5692 5690 5687 5686 5685 5683 5681 5679 5676 5674 5671 5667 5662 5658 5653 5647 5642 5636 5631 5626 5622 5617 5613
5683 5684 5689 5689 5690 5691 5692 5694 5693 5694 5695 5694 5694 5694 5692 5692 5692 5690 5687 5686 5683 5681 5679 5680 5679 5676 5675 5673 5670 5668 5666 5662 5658 5653 5649 5644 5639 5633 5628 5623 5619 5615 5610
5673 5677 5679 5680 5682 5681 5683 5685 5684 5684 5685 5685 5684 5683 5682 5681 5680 5679 5678 5676 5673 5672 5672 5672 5671 5670 5669 5667 5666 5663 5661 5657 5653 5649 5645 5641 5636 5631 5626 5621 5617 5613 5609
5664 5667 5669 5670 5671 5671 5671 5672 5674 5675 5675 5674 5674 5672 5671 5670 5670 5669 5666 5665 5664 5663 5663 5663 5663 5662 5662 5660 5659 5657 5655 5652 5648 5645 5641 5637 5633 5629 5624 5619 5615 5612 5608